Weather History for Russell, KS

Change the Weather History Date:

Sunday, February 24, 2013

  Actual Average Record
Temperature  
Mean Temperature 26 °F -  
Max Temperature 35 °F 49 °F 79 °F (1981)
Min Temperature 16 °F 24 °F -5 °F (1965)
Degree Days  
Heating Degree Days 40    
Moisture  
Dew Point 23 °F    
Average Humidity 82    
Maximum Humidity 92    
Minimum Humidity 72    
Precipitation  
Precipitation 0.01 in - - ()
Sea Level Pressure  
Sea Level Pressure 29.92 in    
Wind  
Wind Speed 10 mph (ENE)    
Max Wind Speed 17 mph    
Max Gust Speed -    
Visibility 7 miles    
Events Snow    
Averages and records for this station are not official NWS values.
T = Trace of Precipitation, MM = Missing Value Source: NWS Daily Summary

Daily Weather History Graph

Daily Weather History Graph

Search for Another Location

Airport:

Trip Planner

Search our weather history database for the weather conditions in past years. The results will help you decide how hot, cold, wet, or windy it might be!

Date:

Astronomy

Feb. 24, 2013 Rise Set
Actual Time 7:14 AM CST 6:23 PM CST
Civil Twilight 6:47 AM CST 6:49 PM CST
Nautical Twilight 6:16 AM CST 7:20 PM CST
Astronomical Twilight 5:45 AM CST 7:51 PM CST
Moon 5:35 PM CST (2/24) 6:12 AM CST (2/24)
Length of Visible Light 12h 02m
Length of Day
11h 08m
Waxing Gibbous, 99% of the Moon is Illuminated
Feb 24
Waxing Gibbous
Feb 25
Full
Mar 4
Last Quarter
Mar 11
New
Mar 19
First Quarter

Hourly Weather History & Observations

Time (CST) Temp. Windchill Dew Point Humidity Pressure Visibility Wind Dir Wind Speed Gust Speed Precip Events Conditions
12:53 AM 23.0 °F 10.6 °F 19.0 °F 85% 29.88 in 7.0 mi SSE 13.8 mph - N/A   Clear
1:53 AM 21.9 °F 11.7 °F 19.0 °F 89% 29.89 in 7.0 mi South 9.2 mph - N/A   Clear
2:53 AM 19.9 °F 9.3 °F 17.1 °F 89% 29.88 in 7.0 mi South 9.2 mph - N/A   Clear
3:53 AM 19.0 °F 13.9 °F 16.0 °F 88% 29.88 in 6.0 mi East 3.5 mph - N/A   Clear
4:53 AM 16.0 °F 8.8 °F 14.0 °F 92% 29.89 in 5.0 mi East 4.6 mph - N/A   Clear
5:53 AM 17.1 °F 8.7 °F 14.0 °F 88% 29.88 in 7.0 mi ESE 5.8 mph - N/A   Clear
6:53 AM 19.0 °F 9.0 °F 16.0 °F 88% 29.90 in 9.0 mi ESE 8.1 mph - N/A   Clear
7:53 AM 16.0 °F 3.6 °F 12.9 °F 88% 29.91 in 5.0 mi East 10.4 mph - N/A   Clear
8:53 AM 21.0 °F 16.2 °F 16.0 °F 81% 29.93 in 5.0 mi NE 3.5 mph - N/A   Haze
9:53 AM 25.0 °F 13.6 °F 19.0 °F 78% 29.91 in 8.0 mi East 12.7 mph - N/A   Clear
10:53 AM 30.9 °F 20.7 °F 23.0 °F 72% 29.90 in 10.0 mi East 13.8 mph - N/A   Clear
11:53 AM 32.0 °F 24.2 °F 24.1 °F 73% 29.88 in 8.0 mi NE 9.2 mph - N/A   Clear
12:53 PM 34.0 °F - 26.1 °F 73% 29.87 in 9.0 mi North - - N/A   Overcast
2:53 PM 34.0 °F 26.6 °F 26.1 °F 73% 29.86 in 8.0 mi NE 9.2 mph - N/A   Overcast
3:53 PM 34.0 °F 24.6 °F 27.0 °F 75% 29.86 in 9.0 mi ENE 13.8 mph - N/A   Overcast
4:53 PM 35.1 °F 27.4 °F 27.0 °F 72% 29.88 in 10.0 mi NE 10.4 mph - N/A   Overcast
5:53 PM 35.1 °F 27.4 °F 28.0 °F 76% 29.91 in 9.0 mi NNE 10.4 mph - N/A   Overcast
6:12 PM 35.6 °F 29.9 °F 28.4 °F 75% 29.86 in 9.0 mi NE 6.9 mph - N/A   Overcast
6:44 PM 33.8 °F 25.3 °F 28.4 °F 81% 29.88 in 10.0 mi NNE 11.5 mph - N/A   Overcast
6:53 PM 34.0 °F 26.0 °F 28.0 °F 79% 29.95 in 10.0 mi NNE 10.4 mph - N/A   Overcast
7:53 PM 34.0 °F 25.5 °F 28.0 °F 79% 29.99 in 10.0 mi NNE 11.5 mph - N/A   Overcast
8:53 PM 33.1 °F 23.9 °F 28.9 °F 85% 30.00 in 5.0 mi NNE 12.7 mph - 0.00 in Snow Light Snow
9:41 PM 33.8 °F 23.5 °F 28.4 °F 81% 29.94 in 7.0 mi North 16.1 mph - 0.00 in   Overcast
9:53 PM 33.1 °F 22.6 °F 28.0 °F 82% 30.01 in 6.0 mi NNE 16.1 mph - 0.00 in   Haze
10:53 PM 33.1 °F 23.0 °F 28.9 °F 85% 30.01 in 7.0 mi North 15.0 mph - N/A   Overcast
11:49 PM 32.0 °F 20.8 °F 28.4 °F 87% 29.97 in 3.0 mi North 17.3 mph - 0.01 in Snow Light Snow
11:53 PM 32.0 °F 20.8 °F 28.9 °F 88% 30.02 in 3.0 mi North 17.3 mph - 0.01 in Snow Light Snow